Time,TemperatureF,DewpointF,PressureIn,WindDirection,WindDirectionDegrees,WindSpeedMPH,WindSpeedGustMPH,Humidity,HourlyPrecipIn,Conditions,Clouds,dailyrainin,SolarRadiationWatts/m^2,SoftwareType,DateUTC
2013-05-01 00:02:00,71.0,62.0,-100.00,SE,146,7.0,12.0,73,0.00,,,-99.99,1.000000,,2013-05-01 05:02:00,
2013-05-01 00:32:00,70.0,62.0,-100.00,SE,143,6.0,12.0,76,0.00,,,-99.99,0.000000,,2013-05-01 05:32:00,
2013-05-01 00:42:00,70.0,62.0,-100.00,SE,143,6.0,12.0,76,0.00,,,-99.99,0.000000,,2013-05-01 05:42:00,
2013-05-01 00:52:00,70.0,62.0,-100.00,SE,143,6.0,12.0,76,0.00,,,-99.99,0.000000,,2013-05-01 05:52:00,
2013-05-01 01:02:00,70.0,62.0,-100.00,SE,143,6.0,12.0,76,0.00,,,-99.99,0.000000,,2013-05-01 06:02:00,
2013-05-01 01:32:00,69.0,62.0,-100.00,SE,143,6.0,14.0,79,0.00,,,-99.99,0.000000,,2013-05-01 06:32:00,
2013-05-01 01:42:00,69.0,62.0,-100.00,SE,143,6.0,14.0,79,0.00,,,-99.99,0.000000,,2013-05-01 06:42:00,
2013-05-01 01:52:00,69.0,62.0,-100.00,SE,143,6.0,14.0,79,0.00,,,-99.99,0.000000,,2013-05-01 06:52:00,
2013-05-01 02:01:00,69.0,62.0,-100.00,SE,143,6.0,14.0,79,0.00,,,-99.99,0.000000,,2013-05-01 07:01:00,
2013-05-01 02:32:00,67.0,62.0,-100.00,SSE,148,6.0,12.0,84,0.00,,,-99.99,0.000000,,2013-05-01 07:32:00,
2013-05-01 02:42:00,67.0,62.0,-100.00,SSE,148,6.0,12.0,84,0.00,,,-99.99,0.000000,,2013-05-01 07:42:00,
2013-05-01 02:52:00,67.0,62.0,-100.00,SSE,148,6.0,12.0,84,0.00,,,-99.99,0.000000,,2013-05-01 07:52:00,
2013-05-01 03:02:00,67.0,62.0,-100.00,SSE,148,6.0,12.0,84,0.00,,,-99.99,0.000000,,2013-05-01 08:02:00,
2013-05-01 03:32:00,66.0,62.0,-100.00,SSE,150,6.0,12.0,87,0.00,,,0.00,0.000000,,2013-05-01 08:32:00,
2013-05-01 03:42:00,66.0,62.0,-100.00,SSE,150,6.0,12.0,87,0.00,,,0.00,0.000000,,2013-05-01 08:42:00,
2013-05-01 03:53:00,66.0,62.0,-100.00,SSE,150,6.0,12.0,87,0.00,,,0.00,0.000000,,2013-05-01 08:53:00,
2013-05-01 04:01:00,66.0,62.0,-100.00,SSE,150,6.0,12.0,87,0.00,,,0.00,0.000000,,2013-05-01 09:01:00,
2013-05-01 04:33:00,65.0,62.0,-100.00,SE,143,6.0,11.0,90,0.00,,,-99.99,0.000000,,2013-05-01 09:33:00,
2013-05-01 04:43:00,65.0,62.0,-100.00,SE,143,6.0,11.0,90,0.00,,,-99.99,0.000000,,2013-05-01 09:43:00,
2013-05-01 04:53:00,65.0,62.0,-100.00,SE,143,6.0,11.0,90,0.00,,,-99.99,0.000000,,2013-05-01 09:53:00,
2013-05-01 05:02:00,65.0,62.0,-100.00,SE,143,6.0,11.0,90,0.00,,,-99.99,0.000000,,2013-05-01 10:02:00,
2013-05-01 05:33:00,65.0,63.0,-100.00,SE,143,6.0,11.0,92,0.00,,,-99.99,0.000000,,2013-05-01 10:33:00,
2013-05-01 05:42:00,65.0,63.0,-100.00,SE,143,6.0,11.0,92,0.00,,,-99.99,0.000000,,2013-05-01 10:42:00,
2013-05-01 05:53:00,65.0,63.0,-100.00,SE,143,6.0,11.0,92,0.00,,,-99.99,0.000000,,2013-05-01 10:53:00,
2013-05-01 06:02:00,65.0,63.0,-100.00,SE,143,6.0,11.0,92,0.00,,,-99.99,0.000000,,2013-05-01 11:02:00,
2013-05-01 06:32:00,66.0,63.0,-100.00,SSE,156,7.0,11.0,91,0.00,,,-99.99,0.000000,,2013-05-01 11:32:00,
2013-05-01 06:42:00,66.0,63.0,-100.00,SSE,156,7.0,11.0,91,0.00,,,-99.99,0.000000,,2013-05-01 11:42:00,
2013-05-01 06:52:00,66.0,63.0,-100.00,SSE,156,7.0,11.0,91,0.00,,,-99.99,0.000000,,2013-05-01 11:52:00,
2013-05-01 07:01:00,66.0,63.0,-100.00,SSE,156,7.0,11.0,91,0.00,,,-99.99,0.000000,,2013-05-01 12:01:00,
2013-05-01 08:32:00,67.0,64.0,-100.00,SSE,152,7.0,14.0,91,-99.99,,,-99.99,66.000000,,2013-05-01 13:32:00,
2013-05-01 08:42:00,67.0,64.0,-100.00,SSE,152,7.0,14.0,91,-99.99,,,-99.99,66.000000,,2013-05-01 13:42:00,
2013-05-01 08:52:00,67.0,64.0,-100.00,SSE,152,7.0,14.0,91,-99.99,,,-99.99,66.000000,,2013-05-01 13:52:00,
2013-05-01 09:02:00,67.0,64.0,-100.00,SSE,152,7.0,14.0,91,-99.99,,,-99.99,66.000000,,2013-05-01 14:02:00,
2013-05-01 09:32:00,68.0,64.0,-100.00,South,169,6.0,13.0,88,0.00,,,-99.99,164.000000,,2013-05-01 14:32:00,
2013-05-01 09:42:00,68.0,64.0,-100.00,South,169,6.0,13.0,88,0.00,,,-99.99,164.000000,,2013-05-01 14:42:00,
2013-05-01 09:52:00,68.0,64.0,-100.00,South,169,6.0,13.0,88,0.00,,,-99.99,164.000000,,2013-05-01 14:52:00,
2013-05-01 10:01:00,68.0,64.0,-100.00,South,169,6.0,13.0,88,0.00,,,-99.99,164.000000,,2013-05-01 15:01:00,
2013-05-01 10:33:00,72.0,65.0,-100.00,SE,144,5.0,11.0,80,0.00,,,-99.99,396.000000,,2013-05-01 15:33:00,
2013-05-01 10:43:00,72.0,65.0,-100.00,SE,144,5.0,11.0,80,0.00,,,-99.99,396.000000,,2013-05-01 15:43:00,
2013-05-01 10:53:00,72.0,65.0,-100.00,SE,144,5.0,11.0,80,0.00,,,-99.99,396.000000,,2013-05-01 15:53:00,
2013-05-01 11:03:00,72.0,65.0,-100.00,SE,144,5.0,11.0,80,0.00,,,-99.99,396.000000,,2013-05-01 16:03:00,
2013-05-01 11:32:00,70.0,64.0,-100.00,SE,137,4.0,12.0,82,0.00,,,0.00,244.000000,,2013-05-01 16:32:00,
2013-05-01 11:42:00,70.0,64.0,-100.00,SE,137,4.0,12.0,82,0.00,,,0.00,244.000000,,2013-05-01 16:42:00,
2013-05-01 11:53:00,70.0,64.0,-100.00,SE,137,4.0,12.0,82,0.00,,,0.00,244.000000,,2013-05-01 16:53:00,
2013-05-01 12:02:00,70.0,64.0,-100.00,SE,137,4.0,12.0,82,0.00,,,0.00,244.000000,,2013-05-01 17:02:00,
2013-05-01 12:32:00,70.0,64.0,-100.00,SSE,151,6.0,11.0,82,0.00,,,-99.99,195.000000,,2013-05-01 17:32:00,
2013-05-01 12:42:00,70.0,64.0,-100.00,SSE,151,6.0,11.0,82,0.00,,,-99.99,195.000000,,2013-05-01 17:42:00,
2013-05-01 12:52:00,70.0,64.0,-100.00,SSE,151,6.0,11.0,82,0.00,,,-99.99,195.000000,,2013-05-01 17:52:00,
2013-05-01 13:01:00,70.0,64.0,-100.00,SSE,151,6.0,11.0,82,0.00,,,-99.99,195.000000,,2013-05-01 18:01:00,
2013-05-01 13:32:00,71.0,64.0,-100.00,South,170,5.0,10.0,79,0.00,,,0.00,224.000000,,2013-05-01 18:32:00,
2013-05-01 13:42:00,71.0,64.0,-100.00,South,170,5.0,10.0,79,0.00,,,0.00,224.000000,,2013-05-01 18:42:00,
2013-05-01 13:52:00,71.0,64.0,-100.00,South,170,5.0,10.0,79,0.00,,,0.00,224.000000,,2013-05-01 18:52:00,
2013-05-01 14:02:00,71.0,64.0,-100.00,South,170,5.0,10.0,79,0.00,,,0.00,224.000000,,2013-05-01 19:02:00,
2013-05-01 14:32:00,76.0,66.0,-100.00,West,281,3.0,8.0,71,0.00,,,0.00,485.000000,,2013-05-01 19:32:00,
2013-05-01 14:43:00,76.0,66.0,-100.00,West,281,3.0,8.0,71,0.00,,,0.00,485.000000,,2013-05-01 19:43:00,
2013-05-01 14:52:00,76.0,66.0,-100.00,West,281,3.0,8.0,71,0.00,,,0.00,485.000000,,2013-05-01 19:52:00,
2013-05-01 15:01:00,76.0,66.0,-100.00,West,281,3.0,8.0,71,0.00,,,0.00,485.000000,,2013-05-01 20:01:00,
2013-05-01 15:32:00,80.0,66.0,-100.00,SE,145,6.0,12.0,62,0.00,,,0.00,873.000000,,2013-05-01 20:32:00,
2013-05-01 15:42:00,80.0,66.0,-100.00,SE,145,6.0,12.0,62,0.00,,,0.00,873.000000,,2013-05-01 20:42:00,
2013-05-01 15:52:00,80.0,66.0,-100.00,SE,145,6.0,12.0,62,0.00,,,0.00,873.000000,,2013-05-01 20:52:00,
2013-05-01 16:01:00,80.0,66.0,-100.00,SE,145,6.0,12.0,62,0.00,,,0.00,873.000000,,2013-05-01 21:01:00,
2013-05-01 16:32:00,81.0,65.0,-100.00,SSE,158,6.0,12.0,58,0.00,,,0.00,797.000000,,2013-05-01 21:32:00,
2013-05-01 16:43:00,81.0,65.0,-100.00,SSE,158,6.0,12.0,58,0.00,,,0.00,797.000000,,2013-05-01 21:43:00,
2013-05-01 16:53:00,81.0,65.0,-100.00,SSE,158,6.0,12.0,58,0.00,,,0.00,797.000000,,2013-05-01 21:53:00,
2013-05-01 17:03:00,81.0,65.0,-100.00,SSE,158,6.0,12.0,58,0.00,,,0.00,797.000000,,2013-05-01 22:03:00,
2013-05-01 17:33:00,82.0,63.0,-100.00,SSE,150,6.0,13.0,52,0.00,,,0.00,637.000000,,2013-05-01 22:33:00,
2013-05-01 17:42:00,82.0,63.0,-100.00,SSE,150,6.0,13.0,52,0.00,,,0.00,637.000000,,2013-05-01 22:42:00,
2013-05-01 17:53:00,82.0,63.0,-100.00,SSE,150,6.0,13.0,52,0.00,,,0.00,637.000000,,2013-05-01 22:53:00,
2013-05-01 18:02:00,82.0,63.0,-100.00,SSE,150,6.0,13.0,52,0.00,,,0.00,637.000000,,2013-05-01 23:02:00,
2013-05-01 18:32:00,83.0,64.0,-100.00,East,99,3.0,10.0,53,0.00,,,0.00,503.000000,,2013-05-01 23:32:00,
2013-05-01 18:42:00,83.0,64.0,-100.00,East,99,3.0,10.0,53,0.00,,,0.00,503.000000,,2013-05-01 23:42:00,
2013-05-01 18:52:00,83.0,64.0,-100.00,East,99,3.0,10.0,53,0.00,,,0.00,503.000000,,2013-05-01 23:52:00,
2013-05-01 19:01:00,83.0,64.0,-100.00,East,99,3.0,10.0,53,0.00,,,0.00,503.000000,,2013-05-02 00:01:00,
2013-05-01 20:32:00,73.0,63.0,-100.00,SE,134,1.0,4.0,71,-99.99,,,0.00,55.000000,,2013-05-02 01:32:00,
2013-05-01 20:42:00,73.0,63.0,-100.00,SE,134,1.0,4.0,71,-99.99,,,0.00,55.000000,,2013-05-02 01:42:00,
2013-05-01 20:52:00,73.0,63.0,-100.00,SE,134,1.0,4.0,71,-99.99,,,0.00,55.000000,,2013-05-02 01:52:00,
2013-05-01 21:02:00,73.0,63.0,-100.00,SE,134,1.0,4.0,71,-99.99,,,0.00,55.000000,,2013-05-02 02:02:00,
2013-05-01 21:32:00,69.0,63.0,-100.00,East,83,1.0,4.0,82,0.00,,,0.00,1.000000,,2013-05-02 02:32:00,
2013-05-01 21:42:00,69.0,63.0,-100.00,East,83,1.0,4.0,82,0.00,,,0.00,1.000000,,2013-05-02 02:42:00,
2013-05-01 21:51:00,69.0,63.0,-100.00,East,83,1.0,4.0,82,0.00,,,0.00,1.000000,,2013-05-02 02:51:00,
2013-05-01 22:01:00,69.0,63.0,-100.00,East,83,1.0,4.0,82,0.00,,,0.00,1.000000,,2013-05-02 03:01:00,
2013-05-01 22:33:00,73.0,62.0,-100.00,ENE,63,4.0,9.0,68,0.00,,,0.00,0.000000,,2013-05-02 03:33:00,
2013-05-01 22:43:00,73.0,62.0,-100.00,ENE,63,4.0,9.0,68,0.00,,,0.00,0.000000,,2013-05-02 03:43:00,
2013-05-01 22:53:00,73.0,62.0,-100.00,ENE,63,4.0,9.0,68,0.00,,,0.00,0.000000,,2013-05-02 03:53:00,
2013-05-01 23:03:00,73.0,62.0,-100.00,ENE,63,4.0,9.0,68,0.00,,,0.00,0.000000,,2013-05-02 04:03:00,
2013-05-01 23:33:00,71.0,59.0,-100.00,East,82,4.0,10.0,67,0.00,,,0.00,0.000000,,2013-05-02 04:33:00,
2013-05-01 23:43:00,71.0,59.0,-100.00,East,82,4.0,10.0,67,0.00,,,0.00,0.000000,,2013-05-02 04:43:00,
2013-05-01 23:52:00,71.0,59.0,-100.00,East,82,4.0,10.0,67,0.00,,,0.00,0.000000,,2013-05-02 04:52:00,